Wetbulb
58.09 53.13 50.63 46.83 40.06 38.37 36.12 39.97 41.54 42.00 44.02 48.50 47.65 54.07 53.91 54.73 53.57 49.00 63.53 60.99 65.91 67.30 69.86 70.33 70.09 71.10 70.76 70.58 70.49 70.48 70.24 69.27 69.18 69.36 70.00 70.81 70.62 70.57 70.30 70.26 70.59 70.71 69.40 68.52 68.41 67.51 66.86 66.00 65.67
54.70 53.31 47.89 41.07 34.09 30.92 31.86 38.62 39.81 42.14 44.98 47.81 51.89 54.80 54.35 53.47 57.41 58.62 57.92 59.42 62.44 68.40 69.62 69.85 68.84 70.51 70.62 70.48 70.27 70.36 70.19 70.04 69.24 69.11 69.12 69.70 70.42 70.47 70.49 70.31 70.76 69.78 68.99 68.33 68.30 67.19 66.33 65.70 65.54
51.94 49.04 44.36 36.29 31.70 30.30 32.88 40.09 40.57 43.62 45.68 51.49 51.83 56.85 55.07 50.17 54.79 54.87 58.15 58.84 63.55 67.97 69.21 69.43 68.52 69.98 70.62 70.51 70.53 70.51 70.24 70.48 70.30 70.24 69.76 69.53 69.78 70.59 71.32 71.30 70.63 70.40 68.68 68.05 67.50 66.68 66.04 65.17 64.50
49.95 45.95 41.44 35.69 34.85 38.01 39.57 40.45 41.14 44.97 49.60 50.73 51.11 52.92 51.89 52.13 51.78 54.10 56.71 63.57 65.39 67.16 68.29 68.35 68.32 69.96 70.56 70.67 70.43 70.29 69.71 69.76 70.21 70.04 69.95 70.12 70.28 71.10 70.78 70.59 70.10 69.82 68.84 67.78 67.03 66.48 65.80 65.03 64.26
44.17 41.23 34.75 33.08 35.94 39.62 41.66 41.32 41.05 44.26 45.55 47.92 50.81 49.93 52.98 51.74 52.07 53.76 56.13 61.13 61.98 64.06 64.31 66.86 67.25 68.43 70.02 70.36 70.03 70.02 69.80 69.43 69.33 69.24 68.95 69.18 69.67 69.85 69.72 69.53 69.55 69.28 68.97 67.57 66.77 66.18 65.62 65.16 64.28
41.60 38.95 32.12 30.86 36.38 39.40 41.07 40.55 42.26 43.37 44.91 47.00 48.00 48.23 52.41 51.64 49.97 52.13 56.12 59.20 61.48 60.56 61.25 62.42 61.88 63.04 66.64 68.78 69.25 69.29 69.55 69.35 69.44 68.86 67.90 68.28 68.60 70.17 69.93 69.17 69.21 69.14 68.95 67.91 67.08 66.08 65.76 65.41 64.21
39.31 34.67 31.18 32.53 35.05 37.67 39.50 41.12 43.03 43.25 43.32 44.89 47.08 45.46 47.67 48.86 49.85 52.80 55.34 57.35 60.43 61.26 60.48 60.44 60.57 60.11 59.68 61.75 64.97 67.52 68.41 68.29 68.64 68.65 67.88 68.14 66.65 68.78 68.99 68.40 68.78 69.10 68.76 68.05 66.58 66.18 66.32 65.15 63.87
38.81 37.39 33.91 34.11 33.90 36.26 40.43 40.95 40.83 43.59 42.94 47.63 47.05 41.25 43.65 46.52 49.85 53.72 54.96 54.97 56.95 59.52 60.12 59.89 60.18 60.23 59.68 59.91 61.29 63.64 65.49 65.99 66.97 66.76 65.66 65.47 65.96 66.54 66.79 65.56 67.23 68.42 68.16 67.50 66.68 65.91 65.98 64.88 63.66
42.82 33.94 31.91 34.40 35.50 37.24 40.15 39.86 42.48 44.85 43.46 44.92 44.87 42.95 45.03 47.33 50.82 51.50 51.68 52.67 53.30 55.13 58.56 59.85 59.54 59.53 59.65 60.30 61.32 62.23 63.17 63.86 64.43 64.16 62.70 63.59 66.72 68.00 66.38 64.75 65.92 67.04 66.96 66.77 66.11 65.50 65.59 64.31 63.04
37.02 32.69 33.80 36.69 36.65 35.84 38.18 39.99 40.28 40.93 39.84 39.93 41.27 43.75 44.35 46.47 47.93 47.89 48.26 48.40 49.34 50.51 53.15 57.07 58.89 58.77 59.03 59.34 60.70 62.86 65.38 66.20 66.09 65.52 65.44 65.36 65.95 66.27 65.67 62.73 62.92 64.47 64.66 65.63 65.50 64.70 63.26 61.30 61.51
35.66 32.24 35.64 36.37 38.19 38.22 39.00 39.49 41.44 38.58 37.18 40.27 39.08 40.50 41.71 43.30 45.18 45.79 46.65 46.98 47.06 49.24 50.84 51.89 52.78 57.69 59.21 58.89 59.76 61.49 64.64 65.04 65.01 65.05 64.99 64.60 64.72 64.75 65.23 65.29 64.26 63.68 61.70 64.02 63.61 61.50 61.13 60.46 59.69
34.13 36.00 36.15 38.02 39.23 38.96 37.87 40.86 38.41 39.52 40.01 42.44 41.63 40.97 40.25 40.80 42.63 43.60 44.17 45.48 45.95 47.13 48.40 50.08 51.65 52.76 57.88 59.28 58.30 61.53 63.67 63.23 63.63 63.70 63.90 63.68 63.82 64.20 64.25 63.63 63.53 64.13 63.69 62.60 61.16 58.74 58.77 58.76 58.52
35.17 35.35 37.28 37.79 38.58 37.89 39.57 37.44 37.85 39.05 41.07 39.73 40.72 39.68 38.92 39.66 41.16 43.37 44.57 45.17 44.84 44.93 47.00 48.38 50.14 50.97 51.59 58.61 58.19 57.61 62.51 63.04 62.69 63.58 63.77 63.43 63.26 63.17 64.56 63.95 63.94 63.22 63.46 61.85 59.62 59.11 57.92 57.35 57.58
36.15 36.61 35.96 37.00 36.72 37.56 36.67 35.64 36.55 36.89 39.26 37.48 37.31 37.08 37.90 38.44 39.13 41.25 42.02 42.61 42.42 43.60 45.43 47.16 48.36 49.45 51.00 53.04 58.13 58.09 61.15 61.48 62.84 63.30 63.42 62.94 62.86 62.31 64.31 63.60 63.54 63.34 62.18 60.48 59.76 58.08 57.63 57.75 58.01
35.92 33.60 34.55 34.98 35.97 35.81 37.01 33.28 33.56 36.10 37.35 35.53 34.92 35.33 36.78 37.79 38.86 38.92 40.93 40.86 41.65 42.65 44.58 45.10 46.72 48.16 48.19 51.06 54.12 58.51 59.24 61.88 61.95 62.64 63.12 63.29 62.33 62.58 61.57 63.51 62.95 63.00 62.29 60.72 59.34 58.53 58.25 57.51 58.27
32.57 31.39 27.84 33.35 35.49 36.11 35.44 28.42 34.87 36.10 35.08 34.63 34.12 33.84 35.06 36.33 37.28 38.23 39.60 40.06 41.10 41.03 41.90 43.95 45.09 46.09 46.56 48.73 51.64 57.27 58.72 61.06 61.45 62.04 62.94 62.99 62.10 62.31 61.87 61.50 62.49 62.20 61.81 60.72 59.33 58.40 57.22 57.35 58.32
29.03 25.20 27.36 29.79 34.32 34.17 33.29 30.05 34.81 35.70 34.74 33.71 33.34 33.47 34.22 35.22 36.87 37.51 38.26 38.83 39.62 40.02 40.28 41.40 43.00 43.65 44.90 46.71 49.82 53.76 58.47 59.32 61.04 61.58 61.50 62.46 62.13 61.91 62.21 61.80 61.64 62.21 61.20 60.57 59.53 58.29 57.88 56.89 57.54
25.71 25.49 27.66 26.47 30.79 32.45 30.58 30.03 32.89 34.74 34.06 33.26 32.83 33.09 33.60 34.16 35.71 37.07 37.61 38.17 38.57 38.99 39.57 40.51 41.47 42.10 43.42 45.18 47.79 52.29 54.93 54.12 58.08 59.78 60.28 61.24 62.19 61.24 61.00 60.94 61.16 61.28 60.32 60.11 59.61 58.55 57.71 57.40 57.35
28.19 27.27 25.69 27.78 31.58 31.01 29.49 29.44 32.27 33.35 32.86 32.33 32.94 33.28 33.66 34.02 36.58 36.84 37.06 37.15 37.26 38.04 37.87 38.74 39.26 40.56 41.59 42.25 43.46 46.75 48.26 50.39 53.86 55.53 54.91 57.65 61.27 60.98 60.59 60.38 60.06 60.57 60.14 59.88 59.94 58.31 57.44 56.15 56.61
29.60 27.35 25.77 28.86 31.32 30.75 29.12 29.39 30.99 32.53 32.58 33.18 33.56 33.58 33.64 33.96 34.72 35.60 35.82 36.14 35.84 36.19 36.67 37.63 38.27 39.12 40.20 40.89 42.50 44.51 45.43 48.50 52.02 52.09 52.77 53.92 56.43 60.83 60.05 59.50 59.03 59.65 59.63 58.27 58.02 57.53 55.82 56.05 55.37
29.49 26.90 26.65 27.67 30.42 29.85 27.10 25.54 28.24 31.88 32.99 33.85 34.16 34.23 34.32 33.84 33.58 34.28 34.51 34.87 35.50 35.61 35.57 36.48 37.58 38.27 39.20 39.47 41.49 43.03 47.15 49.71 48.14 47.60 49.83 51.60 53.90 58.51 60.11 59.52 59.00 59.22 58.90 57.85 57.43 57.19 57.01 55.41 54.52
27.24 30.95 30.32 29.78 26.58 23.35 27.18 20.25 25.78 28.95 30.48 32.06 32.81 32.99 33.36 33.62 33.74 33.96 33.80 33.90 34.61 35.08 35.72 35.98 37.18 37.54 38.65 38.98 39.33 39.74 40.86 41.83 43.67 45.66 48.43 50.87 52.73 54.10 59.44 59.37 58.86 58.60 58.46 57.54 56.95 56.57 56.70 55.67 54.29
28.47 31.70 30.35 29.54 27.24 24.88 25.36 19.03 24.95 27.19 29.21 31.38 32.60 32.96 33.10 33.47 32.98 33.29 33.19 33.67 34.29 34.41 34.77 35.18 36.57 37.20 37.70 38.01 38.39 38.56 39.26 40.79 43.27 44.99 46.13 47.91 50.25 52.51 55.32 59.34 58.67 58.37 58.44 58.18 57.70 56.83 56.41 56.22 55.12
32.09 30.65 25.93 25.15 25.26 12.62 23.86 20.81 22.95 26.11 29.33 30.38 32.04 32.64 33.00 32.91 32.40 32.97 33.06 33.24 32.79 33.39 34.07 34.75 35.82 36.40 37.40 37.49 37.95 38.00 38.14 39.17 40.51 41.86 43.37 45.09 47.43 49.90 51.15 53.60 56.54 58.71 57.84 58.07 57.09 56.52 56.22 55.93 55.59
28.43 21.80 10.55 13.57 10.68 13.21 21.51 19.88 24.42 28.45 29.80 30.90 32.01 32.41 32.99 32.91 31.67 31.73 31.70 31.36 31.48 31.74 32.80 34.36 35.14 35.83 36.98 37.23 37.42 38.07 38.50 38.98 39.38 40.55 41.54 42.64 44.55 46.43 47.98 51.22 52.62 54.91 58.64 57.97 57.74 57.34 56.52 55.79 54.96
27.85 23.32 14.88 13.06 9.96 12.19 21.50 19.04 26.47 30.48 32.26 32.87 32.75 32.52 32.66 32.39 31.43 31.42 31.64 31.26 30.58 30.89 32.09 32.69 34.75 35.57 36.59 36.89 36.88 38.16 38.69 38.71 39.14 39.94 41.24 42.43 43.97 45.90 48.70 49.88 52.22 53.04 54.76 58.69 58.54 57.88 57.39 57.22 56.63
25.74 20.36 26.66 15.89 15.64 11.66 17.14 21.59 26.52 30.69 31.66 31.80 32.30 32.62 32.14 32.37 31.84 31.29 31.77 31.07 30.19 30.14 31.42 31.73 32.98 34.14 35.68 36.55 37.27 37.65 38.00 38.25 38.38 39.69 41.31 42.79 44.22 45.36 46.57 48.31 51.12 52.65 52.71 54.44 58.39 57.85 57.45 57.34 57.24
28.25 28.89 16.98 15.03 9.21 10.05 12.25 14.69 21.93 28.20 30.28 30.63 30.86 30.92 31.51 31.87 31.45 30.89 31.07 30.48 30.14 29.86 30.67 31.48 32.32 32.64 34.28 36.04 36.95 37.49 37.52 38.34 39.53 40.58 40.77 41.49 42.93 43.97 45.15 47.40 49.72 52.19 53.72 53.45 57.35 57.40 57.54 56.93 55.90
26.62 22.55 24.24 22.28 18.49 8.59 5.34 17.96 22.71 27.25 29.54 29.75 30.07 30.90 30.84 31.18 31.75 30.96 30.74 30.12 29.59 28.92 29.73 30.27 30.96 32.00 33.18 34.08 36.24 36.90 37.03 37.83 38.89 39.32 39.84 40.65 42.09 42.73 44.39 45.90 47.85 49.85 51.86 54.82 55.95 54.34 53.54 51.75 50.27
27.19 25.14 24.00 17.49 12.04 13.00 13.22 16.11 27.94 27.26 28.86 30.27 30.71 31.43 31.66 31.51 31.64 31.32 30.37 29.53 28.46 27.79 28.41 29.25 29.84 30.65 32.15 33.37 35.68 36.04 36.44 36.93 37.25 37.65 38.48 39.97 40.84 42.05 43.11 44.73 46.00 46.64 47.52 49.36 49.83 48.46 48.42 47.20 45.43
MSLP
1016.74 1016.69 1016.88 1016.71 1018.42 1019.42 1019.79 1020.01 1019.68 1018.94 1018.24 1017.68 1017.57 1017.39 1017.73 1018.12 1018.27 1018.78 1018.20 1018.07 1017.56 1017.16 1016.83 1016.57 1016.94 1017.05 1017.33 1017.45 1017.57 1017.90 1018.15 1018.37 1018.53 1018.68 1018.92 1018.90 1019.16 1019.21 1019.61 1019.80 1019.94 1019.98 1020.33 1020.72 1020.92 1021.19 1021.58 1022.06 1022.16
1016.66 1016.50 1017.07 1018.17 1019.39 1020.49 1020.87 1020.87 1020.73 1020.01 1019.42 1018.61 1018.09 1018.24 1018.52 1019.10 1019.38 1019.23 1018.97 1018.66 1018.09 1017.01 1016.92 1016.78 1016.99 1017.23 1017.53 1017.81 1017.91 1018.05 1018.15 1018.35 1018.55 1018.81 1019.07 1019.11 1019.25 1019.26 1019.39 1019.93 1020.09 1020.24 1020.61 1020.96 1021.30 1021.59 1021.88 1022.18 1022.53
1016.75 1016.81 1017.95 1019.39 1020.87 1021.36 1021.42 1021.53 1021.22 1020.28 1019.99 1019.25 1018.86 1019.01 1019.84 1021.26 1020.79 1020.63 1020.03 1019.23 1017.85 1017.29 1016.86 1016.99 1016.98 1017.39 1017.67 1017.91 1018.14 1018.29 1018.44 1018.40 1018.54 1018.83 1018.95 1019.23 1019.27 1019.50 1019.45 1019.69 1020.11 1020.41 1020.73 1021.28 1021.62 1021.92 1022.24 1022.47 1022.69
1016.84 1017.44 1019.39 1020.12 1021.62 1022.06 1022.31 1022.37 1022.00 1021.17 1020.24 1020.27 1020.30 1020.39 1021.67 1022.68 1022.44 1021.86 1020.65 1018.68 1017.82 1017.32 1017.29 1016.58 1017.20 1017.56 1017.82 1018.21 1018.08 1018.23 1018.66 1018.81 1018.78 1018.86 1019.10 1019.24 1019.31 1019.49 1019.69 1019.79 1020.14 1020.64 1021.00 1021.40 1021.91 1022.13 1022.46 1022.99 1023.09
1017.60 1018.73 1020.30 1021.42 1021.98 1022.28 1022.47 1022.64 1022.39 1022.12 1021.81 1021.48 1021.05 1021.10 1021.48 1022.12 1022.62 1021.89 1020.50 1019.45 1018.71 1018.29 1017.98 1017.92 1017.73 1017.52 1017.92 1018.17 1018.36 1018.28 1018.57 1018.92 1018.99 1019.13 1019.29 1019.45 1019.50 1019.55 1020.03 1020.20 1020.31 1020.66 1021.13 1021.62 1021.99 1022.43 1022.72 1023.08 1023.54
1018.80 1019.89 1021.46 1022.43 1022.65 1022.70 1022.75 1023.07 1022.92 1022.88 1022.73 1022.30 1022.04 1022.22 1022.06 1022.22 1022.01 1021.57 1020.98 1020.04 1019.51 1018.95 1018.57 1018.39 1018.47 1018.69 1018.25 1018.36 1018.58 1018.64 1018.63 1018.91 1019.08 1019.20 1019.42 1019.66 1019.45 1019.53 1019.91 1020.50 1020.59 1020.57 1021.24 1021.65 1022.16 1022.58 1022.87 1023.13 1023.56
1019.55 1021.21 1022.85 1023.19 1023.34 1023.12 1023.18 1023.07 1023.39 1023.57 1023.51 1023.46 1023.54 1023.08 1022.87 1022.57 1022.94 1022.41 1021.41 1020.73 1019.99 1019.29 1018.97 1018.92 1018.85 1019.16 1018.68 1019.12 1019.18 1018.76 1018.78 1018.95 1019.06 1019.26 1019.28 1019.65 1019.78 1019.69 1019.98 1020.50 1020.75 1020.84 1021.35 1021.78 1022.16 1022.71 1023.00 1023.21 1023.67
1020.50 1021.92 1023.48 1023.89 1023.75 1023.71 1023.57 1023.34 1023.67 1023.91 1024.14 1024.18 1024.12 1024.52 1024.11 1023.98 1023.52 1022.70 1021.94 1021.35 1020.93 1020.01 1019.64 1019.44 1019.31 1018.99 1019.01 1019.09 1019.01 1019.11 1018.79 1018.80 1019.09 1019.23 1019.31 1019.51 1019.91 1019.99 1020.22 1020.61 1021.00 1021.13 1021.47 1021.96 1022.32 1022.74 1023.00 1023.43 1023.78
1020.91 1022.65 1024.11 1024.10 1024.00 1023.88 1023.85 1023.86 1024.19 1024.28 1024.43 1024.71 1025.05 1025.45 1025.17 1024.38 1023.60 1022.82 1022.29 1021.81 1021.45 1020.87 1020.30 1019.69 1019.63 1019.41 1019.28 1018.86 1018.78 1019.14 1018.91 1018.75 1019.09 1019.30 1019.45 1019.66 1019.79 1020.14 1020.43 1020.70 1021.14 1021.50 1021.74 1022.21 1022.74 1023.04 1023.16 1023.54 1023.96
1022.07 1023.76 1024.22 1024.08 1023.94 1024.06 1024.07 1024.35 1024.71 1024.73 1025.07 1025.36 1025.49 1025.51 1025.22 1024.56 1023.98 1023.38 1022.98 1022.57 1022.15 1021.85 1021.26 1020.47 1019.98 1019.65 1019.49 1019.56 1019.02 1018.95 1019.08 1018.64 1018.98 1019.22 1019.46 1019.56 1019.80 1020.06 1020.51 1020.89 1021.38 1021.68 1022.07 1022.49 1023.03 1023.30 1023.57 1023.97 1024.22
1023.07 1024.13 1024.23 1024.24 1024.12 1024.07 1024.21 1024.60 1025.08 1025.29 1025.75 1026.06 1026.26 1026.02 1025.49 1024.95 1024.36 1024.03 1023.75 1023.56 1023.26 1022.64 1021.91 1021.38 1020.91 1019.92 1019.62 1018.96 1018.63 1017.88 1018.62 1018.33 1018.69 1018.94 1019.22 1019.52 1019.77 1020.43 1020.57 1021.27 1021.71 1022.05 1022.24 1022.78 1023.20 1023.57 1023.73 1024.01 1024.37
1023.87 1024.36 1024.33 1024.50 1024.30 1024.25 1024.51 1024.81 1025.64 1026.01 1026.26 1026.25 1026.27 1026.10 1025.79 1025.36 1024.95 1024.50 1024.37 1023.95 1023.54 1022.97 1022.55 1021.99 1021.28 1020.67 1019.41 1018.09 1018.24 1018.30 1017.42 1017.80 1018.26 1018.76 1019.15 1019.19 1019.63 1020.48 1020.56 1021.09 1021.75 1022.03 1022.39 1022.67 1023.15 1023.56 1023.70 1024.09 1024.35
1024.02 1024.46 1024.58 1024.62 1024.80 1024.81 1024.67 1024.94 1025.65 1026.21 1026.39 1026.33 1026.31 1026.25 1026.10 1025.83 1025.38 1024.92 1024.85 1024.52 1024.04 1023.42 1022.83 1022.17 1021.33 1020.59 1019.77 1018.45 1018.20 1017.58 1016.61 1017.16 1017.94 1018.51 1018.84 1019.03 1019.57 1020.22 1020.47 1020.97 1021.52 1021.97 1022.33 1022.73 1023.39 1023.60 1023.78 1024.13 1024.42
1024.39 1024.52 1024.98 1025.00 1024.96 1025.17 1025.15 1025.27 1025.57 1026.10 1026.40 1026.65 1026.74 1026.61 1026.35 1026.03 1025.85 1025.45 1025.12 1024.79 1024.31 1024.05 1023.15 1022.51 1021.81 1021.31 1020.60 1019.71 1018.64 1018.04 1016.69 1017.43 1017.89 1018.38 1018.47 1019.04 1019.52 1019.99 1020.17 1020.79 1021.35 1021.68 1022.12 1022.55 1023.02 1023.57 1023.70 1024.01 1024.36
1024.66 1024.99 1025.27 1025.37 1025.27 1025.52 1025.55 1025.79 1025.62 1026.00 1026.19 1026.64 1026.95 1026.81 1026.52 1026.25 1026.03 1025.88 1025.63 1025.25 1024.94 1024.25 1023.60 1022.95 1021.99 1021.52 1020.93 1020.62 1019.47 1016.94 1017.25 1017.68 1017.95 1018.30 1018.40 1018.96 1019.33 1019.93 1020.14 1020.56 1021.08 1021.48 1022.00 1022.49 1023.04 1023.54 1023.92 1024.12 1024.39
1025.43 1025.79 1026.16 1025.90 1025.51 1025.78 1026.11 1025.73 1025.61 1025.96 1026.33 1026.59 1026.79 1026.89 1026.60 1026.35 1026.25 1026.06 1025.81 1025.44 1025.03 1024.51 1023.96 1023.38 1022.41 1021.99 1021.51 1020.59 1019.93 1017.94 1017.82 1017.71 1017.84 1018.13 1018.47 1018.81 1019.04 1019.42 1020.10 1020.51 1020.88 1021.50 1021.90 1022.46 1023.03 1023.45 1024.00 1024.27 1024.48
1026.69 1026.82 1027.05 1026.45 1026.34 1026.57 1026.69 1025.99 1025.64 1025.98 1026.27 1026.48 1026.68 1026.79 1026.60 1026.33 1026.07 1025.99 1025.95 1025.59 1025.20 1024.78 1024.09 1023.61 1023.07 1022.29 1021.60 1021.18 1019.98 1019.19 1017.90 1017.62 1017.85 1018.31 1018.51 1018.75 1018.97 1019.33 1019.53 1020.19 1020.75 1021.24 1021.88 1022.36 1022.74 1023.46 1023.71 1024.13 1024.47
1027.38 1027.35 1027.52 1027.24 1026.93 1026.70 1026.69 1026.25 1025.83 1025.81 1026.07 1026.26 1026.40 1026.61 1026.44 1026.17 1025.94 1025.91 1025.89 1025.81 1025.40 1025.00 1024.45 1023.99 1023.47 1022.67 1021.82 1021.35 1020.34 1019.33 1018.44 1018.51 1018.45 1018.45 1018.50 1018.81 1018.97 1019.35 1019.71 1019.99 1020.63 1021.24 1021.77 1022.31 1022.72 1023.15 1023.66 1024.07 1024.26
1028.08 1027.77 1028.04 1027.44 1027.30 1027.10 1026.99 1026.44 1025.65 1025.61 1025.85 1025.93 1026.03 1026.22 1026.22 1025.94 1025.81 1025.80 1025.80 1025.68 1025.53 1025.15 1024.63 1024.12 1023.78 1022.86 1022.42 1021.85 1020.48 1019.87 1019.67 1019.55 1019.33 1019.17 1019.05 1018.86 1018.84 1019.22 1019.65 1019.92 1020.42 1020.97 1021.44 1021.86 1022.45 1023.06 1023.52 1024.11 1024.30
1028.50 1028.28 1028.29 1027.84 1027.57 1027.78 1027.26 1026.25 1025.48 1025.43 1025.54 1025.50 1025.65 1025.77 1025.91 1025.81 1025.64 1025.72 1025.71 1025.66 1025.40 1025.26 1024.96 1024.24 1024.08 1023.50 1022.96 1022.41 1021.86 1021.40 1020.94 1020.21 1019.85 1019.81 1019.41 1019.31 1019.20 1019.04 1019.33 1019.92 1020.31 1020.49 1021.15 1021.69 1022.12 1022.78 1023.45 1023.79 1024.23
1028.71 1028.64 1028.75 1028.86 1028.02 1027.98 1027.38 1026.46 1025.72 1025.29 1025.30 1025.21 1025.24 1025.43 1025.60 1025.74 1025.53 1025.62 1025.58 1025.60 1025.44 1025.13 1025.15 1024.66 1024.34 1023.75 1023.44 1022.78 1022.16 1021.56 1020.78 1020.21 1020.10 1020.38 1020.01 1019.79 1019.52 1019.03 1018.97 1019.54 1020.07 1020.33 1020.65 1021.29 1021.68 1022.37 1022.83 1023.45 1024.13
1029.00 1029.00 1029.09 1028.86 1028.47 1028.72 1028.21 1027.97 1026.05 1025.43 1025.21 1025.08 1025.08 1025.20 1025.32 1025.51 1025.48 1025.53 1025.59 1025.45 1025.60 1025.34 1025.08 1024.75 1024.52 1023.81 1023.29 1023.29 1022.61 1022.29 1021.84 1021.32 1021.23 1020.94 1020.83 1020.12 1019.88 1019.33 1018.93 1019.27 1019.73 1020.17 1020.37 1020.97 1021.41 1021.92 1022.39 1022.89 1023.55
1029.47 1029.23 1029.19 1029.21 1029.30 1029.40 1029.33 1029.19 1026.04 1025.53 1025.00 1024.85 1024.92 1025.03 1025.07 1025.22 1025.42 1025.45 1025.61 1025.57 1025.53 1025.57 1025.19 1024.90 1024.34 1024.20 1023.96 1023.74 1023.25 1023.01 1022.57 1022.15 1021.75 1021.30 1020.97 1020.66 1020.64 1019.98 1019.43 1018.98 1019.50 1019.79 1020.15 1020.60 1021.13 1021.73 1022.20 1022.62 1022.81
1029.45 1029.59 1029.74 1030.08 1030.21 1030.52 1030.19 1029.70 1026.63 1025.60 1025.05 1024.82 1024.81 1025.03 1025.17 1025.11 1025.28 1025.36 1025.46 1025.68 1025.68 1025.53 1025.32 1024.77 1024.37 1024.40 1024.08 1024.01 1023.39 1023.28 1023.08 1022.51 1022.34 1021.91 1021.41 1021.35 1020.74 1020.35 1019.97 1019.38 1019.38 1019.49 1019.84 1020.31 1020.86 1021.33 1021.86 1022.24 1022.48
1029.84 1030.36 1030.63 1031.71 1031.53 1031.91 1030.61 1029.69 1026.46 1025.21 1024.79 1024.77 1024.83 1024.93 1025.09 1025.26 1025.33 1025.44 1025.32 1025.49 1025.57 1025.52 1025.43 1025.06 1024.56 1024.02 1023.86 1023.60 1023.25 1023.37 1023.07 1022.68 1022.92 1022.28 1022.10 1021.90 1021.31 1020.58 1020.20 1020.09 1019.80 1019.56 1019.43 1019.85 1020.48 1021.03 1021.38 1021.61 1022.17
1030.33 1030.73 1030.85 1032.70 1033.78 1032.79 1030.75 1028.88 1025.32 1024.53 1024.57 1024.58 1024.73 1024.91 1025.10 1025.23 1025.36 1025.47 1025.41 1025.44 1025.70 1025.52 1025.24 1025.20 1024.81 1024.31 1024.07 1023.63 1023.56 1023.45 1023.20 1022.94 1022.95 1022.56 1022.24 1021.97 1021.72 1021.35 1020.89 1020.61 1019.99 1019.93 1019.58 1019.40 1019.80 1020.38 1020.79 1021.04 1021.50
1030.35 1030.80 1031.44 1032.61 1034.52 1033.75 1030.77 1028.32 1025.37 1024.00 1024.06 1024.31 1024.70 1024.92 1025.02 1025.13 1025.21 1025.27 1025.21 1025.40 1025.73 1025.79 1025.62 1025.35 1024.83 1024.37 1024.02 1023.57 1023.62 1023.43 1022.88 1022.99 1022.73 1022.42 1022.24 1022.00 1021.82 1021.35 1021.03 1020.69 1020.23 1020.05 1019.81 1019.66 1019.51 1020.03 1020.41 1020.79 1021.05
1030.83 1031.02 1031.53 1032.37 1033.98 1033.95 1031.09 1029.16 1026.51 1024.62 1024.13 1024.34 1024.74 1025.18 1025.12 1025.09 1025.18 1025.40 1025.45 1025.29 1025.33 1025.58 1025.58 1025.36 1025.15 1024.91 1024.36 1024.22 1024.02 1023.46 1023.23 1023.08 1022.75 1022.41 1022.15 1021.89 1021.72 1021.54 1021.15 1020.73 1020.46 1020.23 1019.95 1019.60 1019.69 1020.12 1020.24 1020.62 1020.90
1031.28 1031.23 1031.71 1032.41 1033.79 1034.13 1032.66 1028.44 1025.33 1024.75 1024.57 1024.65 1024.82 1025.14 1025.32 1025.39 1025.33 1025.53 1025.74 1025.81 1025.58 1025.42 1025.35 1025.28 1025.03 1024.66 1024.43 1024.57 1024.06 1023.44 1023.22 1022.90 1022.56 1022.46 1022.34 1021.77 1021.61 1021.51 1021.22 1020.85 1020.72 1020.43 1020.03 1019.73 1019.92 1020.11 1020.50 1020.90 1021.13
1031.35 1031.08 1031.23 1031.99 1034.05 1034.31 1033.38 1027.84 1024.76 1024.56 1024.25 1024.62 1024.53 1024.73 1024.89 1025.31 1025.51 1025.59 1025.80 1026.09 1026.20 1026.05 1025.79 1025.52 1025.12 1025.08 1025.07 1024.39 1023.45 1023.29 1023.20 1023.05 1022.91 1022.58 1022.34 1022.06 1022.10 1021.76 1021.06 1020.98 1020.62 1020.63 1020.41 1020.28 1020.53 1020.85 1021.22 1021.49 1021.83
Wind_Speed
6 4 1 5 5 5 1 2 3 8 8 3 8 3 9 5 4 2 6 15 14 3 7 11 13 14 13 13 14 14 13 13 13 13 13 13 14 14 15 15 15 17 18 17 18 18 18 17 17
2 1 4 3 6 3 2 2 5 4 5 13 1 1 5 5 7 4 10 21 20 4 4 7 10 13 13 12 13 13 14 13 13 13 13 13 13 14 16 15 15 17 18 18 18 18 18 18 16
2 3 5 5 3 3 2 3 7 8 7 10 4 5 5 9 9 8 12 23 15 5 4 5 9 14 13 13 12 13 12 12 13 13 13 14 14 14 15 16 16 18 18 18 18 18 18 17 16
1 4 5 6 4 2 3 5 5 11 4 12 6 8 7 10 9 11 20 13 8 5 7 8 9 14 13 11 11 12 11 10 11 12 11 11 13 14 15 15 17 18 18 18 19 18 18 15 15
5 4 5 5 2 3 2 2 4 5 5 8 10 7 6 7 15 16 18 15 15 12 12 12 9 13 12 11 10 12 12 11 10 9 8 7 8 12 13 15 18 19 18 17 17 17 17 15 13
5 3 5 2 1 2 2 6 3 4 5 7 5 8 3 11 23 21 17 15 11 10 12 14 18 25 5 7 9 10 12 12 10 10 7 4 6 12 15 17 17 20 18 18 17 14 14 15 13
7 5 3 2 1 2 4 7 4 3 6 6 6 5 6 17 19 16 15 13 10 9 8 9 12 11 15 15 12 9 10 11 10 9 8 3 3 10 15 16 17 19 18 18 17 14 14 16 14
5 5 4 2 0 1 4 5 3 5 3 4 6 6 6 15 18 12 13 13 11 9 8 7 6 7 10 7 10 11 11 11 10 10 9 7 1 7 11 12 14 18 17 17 16 14 15 16 14
3 6 2 2 1 3 4 5 4 1 3 3 3 3 9 15 11 12 14 13 13 11 9 7 6 6 7 8 7 8 11 10 8 8 8 7 4 6 10 9 14 15 16 15 15 13 13 13 12
7 4 3 2 1 2 3 2 3 2 5 3 2 8 12 12 10 12 14 14 14 15 14 11 7 5 5 6 6 6 8 7 7 7 7 5 5 6 6 8 10 11 12 14 13 11 11 8 6
3 3 3 2 2 3 1 2 1 2 3 0 5 10 11 9 11 11 12 11 12 13 11 13 13 11 4 3 6 3 6 6 5 9 7 6 5 4 5 5 6 6 9 6 8 8 6 8 6
7 4 1 4 5 1 2 3 2 3 1 2 3 5 6 11 11 11 12 12 13 13 12 12 13 13 10 4 7 7 8 7 6 6 8 7 5 5 5 5 6 7 5 7 6 4 7 7 7
6 1 5 2 5 3 2 3 2 1 2 3 4 6 7 8 10 9 10 10 11 12 12 12 12 12 13 8 6 8 6 6 6 7 8 7 7 7 7 6 7 6 6 6 5 5 5 6 6
3 5 3 5 4 5 2 1 2 2 1 3 5 5 6 6 9 8 10 11 13 11 12 12 11 11 11 11 3 6 2 4 7 6 7 8 7 7 7 6 6 7 6 6 6 6 5 6 5
2 4 3 7 6 4 1 4 2 2 1 4 5 5 6 6 7 9 8 10 10 10 11 12 11 12 11 11 12 6 6 4 5 6 9 10 8 9 8 7 7 7 6 7 6 5 4 4 4
4 5 4 3 7 3 3 7 2 1 2 4 5 5 6 6 5 5 7 8 9 11 11 11 11 11 11 11 8 6 4 3 3 4 5 9 9 10 9 7 6 6 7 7 6 5 5 4 4
7 3 3 6 4 3 2 7 3 3 3 5 4 5 6 5 5 5 6 7 9 10 12 12 12 11 12 11 7 8 4 4 3 2 3 6 6 8 9 7 7 7 6 7 7 3 4 4 4
1 3 3 4 4 5 5 9 6 5 4 6 4 5 5 5 4 4 5 6 8 9 9 10 10 11 11 9 6 4 5 6 5 4 1 5 6 7 6 7 8 7 7 6 5 5 3 1 3
1 3 3 4 0 5 3 10 13 6 5 7 5 4 5 6 3 3 4 5 7 8 11 11 11 12 9 7 7 4 4 5 4 5 7 5 5 7 7 5 7 7 7 9 7 4 5 3 2
4 1 4 5 2 2 5 16 8 3 5 5 5 5 5 5 5 4 5 5 7 6 9 11 11 10 8 6 5 3 4 3 3 5 6 8 6 7 6 6 6 8 6 6 7 6 3 2 4
1 2 3 3 6 0 7 7 5 3 3 5 6 5 4 5 7 5 6 4 6 9 8 9 10 9 7 9 5 5 3 2 4 6 7 7 8 3 9 9 7 8 6 5 7 7 8 5 4
3 2 2 2 3 2 5 5 5 4 8 5 8 7 7 6 5 3 5 6 6 7 7 8 8 9 9 9 7 8 5 4 3 4 5 6 8 8 6 8 7 7 5 6 6 6 5 5 5
3 2 2 1 2 1 5 3 8 4 5 5 7 7 6 6 6 5 5 5 4 5 7 7 7 6 7 7 6 5 5 4 4 4 6 8 6 7 6 6 7 6 5 6 8 8 7 5 4
4 1 4 4 1 5 3 4 7 3 4 6 4 7 7 6 5 5 4 3 4 5 6 8 8 6 6 5 6 6 6 6 5 5 5 5 5 4 7 6 3 5 6 6 5 5 7 7 5
2 3 5 8 8 5 0 2 10 7 6 5 7 8 7 6 5 5 6 5 5 6 7 7 8 9 7 7 7 6 6 6 5 4 3 5 4 5 8 8 5 4 3 7 6 7 6 6 6
2 1 7 5 2 7 3 5 6 5 5 7 7 7 7 7 5 5 6 5 3 6 6 6 8 8 8 7 6 6 5 4 3 3 4 3 3 3 4 6 5 5 3 3 7 5 5 6 7
4 4 1 9 3 2 4 8 9 3 5 4 8 6 7 7 6 6 6 4 3 4 5 6 7 8 9 9 7 6 6 6 5 6 4 3 4 4 5 5 5 4 3 2 4 3 4 6 7
2 5 4 5 4 6 5 6 6 5 5 6 7 8 8 6 6 5 5 5 3 2 3 5 6 5 7 8 7 6 5 5 5 4 5 5 5 5 5 5 5 5 4 4 4 3 3 4 1
1 1 4 5 3 6 3 8 9 7 4 6 7 7 8 8 7 5 4 3 4 4 3 4 6 7 7 7 6 6 6 6 5 4 5 5 4 5 5 5 4 3 3 1 3 4 4 5 5
3 3 2 6 4 1 4 12 4 9 8 6 9 8 6 6 7 6 4 3 2 4 4 4 6 6 6 6 7 6 6 6 5 6 5 5 4 3 3 4 4 4 4 4 5 6 5 7 7
Wind_Direction
332 345 340 40 69 65 116 58 317 331 338 330 306 345 106 68 20 38 310 9 331 208 213 181 166 153 153 147 144 143 145 147 146 148 149 146 149 147 145 142 144 129 130 128 126 121 119 114 115
339 224 41 75 84 90 266 317 325 261 304 305 291 80 53 67 25 29 348 330 315 216 220 193 166 155 150 149 151 151 150 152 150 153 157 158 158 155 149 149 150 134 134 134 128 124 123 123 120
192 43 78 87 87 130 154 1 295 303 315 357 36 57 44 335 355 338 315 308 304 250 188 215 174 157 152 156 163 155 154 155 152 151 159 167 169 169 160 159 147 139 139 137 126 128 128 125 121
87 24 49 76 92 57 69 330 314 328 357 29 344 81 96 82 349 322 310 331 320 286 274 205 188 158 156 165 161 149 153 160 151 149 149 164 180 179 168 157 144 139 142 139 131 130 130 124 120
32 51 64 79 80 108 45 338 325 2 359 354 346 353 116 53 359 341 343 350 357 15 8 360 312 180 164 169 172 160 165 169 162 150 154 162 189 182 175 164 150 143 144 143 137 137 132 126 123
46 89 59 143 108 16 346 356 346 12 357 347 40 336 59 31 0 342 341 345 341 14 26 36 39 27 14 186 189 183 174 170 166 161 161 181 195 177 170 167 159 141 147 143 138 141 148 135 131
101 74 118 107 337 39 328 331 60 347 9 22 326 334 308 6 344 334 340 353 358 11 34 43 53 38 15 6 308 206 187 181 166 162 151 154 231 161 163 164 161 147 144 141 138 137 138 139 136
91 86 81 19 317 152 333 1 345 45 65 318 346 21 339 327 326 337 358 4 3 7 11 24 37 44 22 1 343 272 206 192 167 160 153 145 162 164 159 158 158 145 144 143 142 147 147 145 144
88 65 90 179 104 291 352 34 2 309 67 49 75 53 311 317 333 354 6 6 5 2 1 359 10 20 19 8 358 295 233 186 162 160 148 135 136 173 163 149 146 152 149 144 143 149 152 143 140
65 79 172 197 221 273 351 74 308 8 11 9 354 344 337 337 358 8 5 358 358 354 349 352 359 357 7 353 350 315 238 172 170 171 168 149 143 143 142 133 142 134 125 136 142 136 117 126 143
55 108 178 11 296 205 159 90 50 353 34 281 311 327 340 340 7 7 0 4 348 341 352 351 345 330 295 332 331 310 220 174 166 167 167 153 132 132 121 131 133 143 141 139 141 139 146 149 147
88 47 72 355 340 97 55 118 65 33 215 310 324 342 349 359 3 6 355 355 349 346 342 343 347 341 323 328 16 298 201 168 162 167 163 150 136 149 134 131 144 151 147 141 149 154 145 153 156
78 97 51 29 34 77 101 60 103 351 322 8 8 13 1 360 1 2 354 351 347 343 339 348 344 349 338 333 345 353 183 170 160 165 166 158 150 158 148 149 150 143 137 153 158 155 148 152 161
116 85 67 38 9 11 6 358 131 217 261 335 16 356 352 360 2 2 3 355 350 341 338 341 346 342 341 331 346 356 302 166 155 167 161 171 161 162 163 152 162 158 163 157 158 171 166 166 166
77 81 12 11 353 19 41 289 243 262 263 325 349 345 336 342 2 9 355 352 341 338 337 339 344 341 347 323 320 21 350 194 156 176 167 174 167 174 165 169 166 173 168 158 151 160 164 152 178
51 57 18 328 17 41 32 281 250 203 244 300 337 334 331 335 333 356 1 352 344 346 342 341 340 345 336 335 326 340 355 229 163 175 183 184 171 169 168 176 176 174 165 164 166 165 166 176 195
8 108 335 323 74 2 37 284 262 205 243 290 322 323 317 321 332 352 356 350 351 350 348 349 340 347 340 326 333 317 35 3 65 189 203 194 177 187 171 173 177 159 164 172 164 155 173 189 198
305 76 281 273 333 10 305 273 290 256 246 270 293 297 305 316 301 325 354 352 350 347 348 350 345 350 347 334 329 333 46 3 27 31 51 205 189 185 193 164 161 163 172 170 166 160 157 200 208
298 113 273 261 260 11 294 287 284 271 255 278 271 276 295 301 298 316 345 353 354 358 356 359 353 355 358 346 357 1 12 343 6 27 33 22 190 185 187 187 165 168 176 183 175 145 170 183 146
339 65 309 283 329 4 331 297 295 251 249 241 270 272 277 298 314 334 347 1 353 352 351 357 353 0 359 351 348 323 303 313 332 7 20 22 352 184 180 181 179 175 166 153 160 159 147 161 178
350 97 310 283 323 191 326 310 334 322 279 282 271 261 270 275 299 326 337 346 350 356 355 351 344 357 5 350 342 333 299 313 24 355 1 358 349 297 174 182 182 182 167 172 168 175 174 173 188
306 89 291 284 31 329 31 287 308 323 309 289 290 277 273 289 294 310 332 335 352 341 342 347 341 355 7 353 11 4 357 1 10 347 331 346 339 343 181 173 172 179 163 164 174 178 181 148 182
285 344 238 311 75 52 27 67 271 347 327 315 324 321 280 275 280 303 324 323 338 349 342 334 343 352 359 356 14 10 353 0 337 356 349 6 313 356 341 166 175 171 173 183 178 180 192 199 170
295 223 35 42 38 37 337 98 285 293 279 303 303 313 296 288 289 299 302 322 329 342 349 342 346 335 352 355 15 17 355 6 3 6 10 338 337 337 353 27 48 179 174 179 183 181 193 197 195
44 44 357 358 11 219 349 67 246 279 273 241 284 299 303 298 279 287 306 329 334 345 349 341 339 344 349 358 8 360 4 14 347 6 2 339 338 348 355 345 11 354 200 182 172 189 191 184 202
340 224 142 208 289 280 303 245 260 218 283 279 277 277 292 293 271 271 279 299 327 334 339 344 341 343 351 358 354 348 1 12 343 350 340 324 317 316 321 332 348 299 9 173 184 188 196 195 212
306 33 349 102 45 9 268 288 295 278 305 311 294 304 297 292 277 262 275 286 317 336 333 334 345 346 346 353 349 350 3 358 347 343 338 336 328 340 332 322 333 311 296 290 173 168 187 196 203
224 144 55 9 52 314 298 280 251 314 314 329 322 312 307 306 294 267 260 281 299 326 322 336 346 345 348 343 342 355 353 348 344 349 357 345 339 342 336 342 332 309 268 216 226 184 184 202 184
281 348 55 108 96 156 294 271 211 225 270 292 290 290 295 299 300 292 255 255 289 320 341 342 348 348 354 341 337 354 355 357 356 7 350 349 340 342 342 334 321 321 334 279 159 98 87 91 85
282 242 198 121 245 85 131 275 201 226 236 244 271 281 277 286 295 297 267 251 269 305 329 348 343 345 332 333 352 1 358 5 5 6 4 354 343 339 354 337 16 24 32 45 79 86 79 99 87